Location: Roland
(31.1349°N, 85.4372°W)
Time: 09:53:12
(UTC+00:00)

Envisat - Visible Passes

Search period start: 04 March 2021 00:00
Search period end: 14 March 2021 00:00
Orbit: 764 x 766 km, 98.1° (Epoch: 03 March)

Date Brightness Start Highest point End Pass type
(mag) Time Alt. Az. Time Alt. Az. Time Alt. Az.
04 Mar 3.3 11:07:56 10° NNE 11:13:01 70° ESE 11:18:03 10° S visible
05 Mar 5.1 10:31:47 10° NE 10:36:06 28° E 10:40:25 10° SSE visible
06 Mar 6.3 09:57:47 10° ENE 09:59:02 11° E 10:00:18 10° ESE visible
06 Mar 3.0 11:33:20 10° N 11:38:21 62° WNW 11:43:21 10° SSW visible
07 Mar 3.9 10:56:37 10° NNE 11:01:34 53° E 11:06:30 10° S visible
08 Mar 5.5 10:20:47 10° NE 10:24:38 21° E 10:28:27 10° SE visible
09 Mar 3.0 11:21:52 10° N 11:26:57 81° WNW 11:32:01 10° SSW visible
10 Mar 4.4 10:45:22 10° NNE 10:50:08 40° E 10:54:52 10° SSE visible
11 Mar 5.9 10:10:00 10° NE 10:13:07 16° E 10:16:14 10° SE visible
12 Mar 3.2 11:10:27 10° NNE 11:15:33 77° ESE 11:20:37 10° S visible
13 Mar 5.0 10:34:11 10° NE 10:38:40 31° E 10:43:05 10° SSE visible
